| time (UTC) | temp F | wind direction | speed MPH | gust MPH | rain 1hr in | rain 24hr in | rain mn in | humidity % | barometer mb |
| 20260902210833 | 55 | 161 | 5.0 | 17.0 | 0.00 | 0.02 | 0.02 | 75 | 1006.1 |
| 20260902210333 | 55 | 174 | 4.0 | 16.0 | 0.00 | 0.02 | 0.02 | 76 | 1006.2 |
| 20260902210109 | 55 | 133 | 5.0 | 16.0 | 0.00 | 0.02 | 0.02 | 77 | 1006.1 |
| 20260902205330 | 55 | 139 | 5.0 | 14.0 | 0.00 | 0.02 | 0.02 | 78 | 1006.1 |
| 20260902204831 | 55 | 180 | 5.0 | 17.0 | 0.00 | 0.02 | 0.02 | 78 | 1006.2 |
| 20260902204558 | 55 | 182 | 5.0 | 17.0 | 0.00 | 0.02 | 0.02 | 77 | 1006.4 |
| 20260902203842 | 55 | 174 | 5.0 | 15.0 | 0.00 | 0.02 | 0.02 | 76 | 1006.5 |
| 20260902203837 | 55 | 190 | 5.0 | 15.0 | 0.00 | 0.02 | 0.02 | 77 | 1006.5 |
| 20260902203056 | 55 | 159 | 6.0 | 13.0 | 0.00 | 0.02 | 0.02 | 76 | 1006.6 |
| 20260902202320 | 55 | 224 | 6.0 | 18.0 | 0.01 | 0.02 | 0.02 | 75 | 1006.6 |
| 20260902201821 | 55 | 177 | 6.0 | 18.0 | 0.01 | 0.02 | 0.02 | 76 | 1006.6 |
| 20260902201321 | 55 | 144 | 5.0 | 14.0 | 0.02 | 0.02 | 0.02 | 76 | 1006.6 |
| 20260902200821 | 55 | 160 | 6.0 | 14.0 | 0.02 | 0.02 | 0.02 | 77 | 1006.6 |
| 20260902200318 | 55 | 185 | 6.0 | 14.0 | 0.02 | 0.02 | 0.02 | 77 | 1006.7 |
| 20260902195838 | 55 | 191 | 4.0 | 14.0 | 0.02 | 0.02 | 0.02 | 78 | 1006.5 |
| 20260902195831 | 55 | 196 | 5.0 | 13.0 | 0.02 | 0.02 | 0.02 | 77 | 1006.6 |
| 20260902195034 | 55 | 171 | 4.0 | 14.0 | 0.02 | 0.02 | 0.02 | 80 | 1006.7 |
| 20260902194300 | 54 | 189 | 5.0 | 14.0 | 0.02 | 0.02 | 0.02 | 79 | 1006.7 |
| 20260902193754 | 54 | 211 | 5.0 | 14.0 | 0.02 | 0.02 | 0.02 | 81 | 1006.8 |
| 20260902193248 | 55 | 220 | 5.0 | 14.0 | 0.02 | 0.02 | 0.02 | 81 | 1006.7 |
| 20260902192742 | 55 | 178 | 5.0 | 13.0 | 0.01 | 0.01 | 0.02 | 80 | 1006.7 |
| 20260902192236 | 56 | 195 | 5.0 | 13.0 | 0.01 | 0.01 | 0.01 | 78 | 1006.7 |
| 20260902191732 | 56 | 142 | 4.0 | 13.0 | 0.01 | 0.01 | 0.01 | 77 | 1006.7 |
| 20260902191223 | 57 | 159 | 5.0 | 11.0 | 0.00 | 0.00 | 0.00 | 74 | 1006.8 |
| 20260902190718 | 57 | 181 | 7.0 | 14.0 | 0.00 | 0.00 | 0.00 | 70 | 1006.7 |
| 20260902190457 | 58 | 213 | 5.0 | 14.0 | 0.00 | 0.00 | 0.00 | 69 | 1006.5 |
| 20260902185936 | 58 | 164 | 4.0 | 13.0 | 0.00 | 0.00 | 0.00 | 70 | 1006.6 |
| 20260902185713 | 58 | 164 | 4.0 | 13.0 | 0.00 | 0.00 | 0.00 | 70 | 1006.6 |
| 20260902185200 | 58 | 198 | 4.0 | 13.0 | 0.00 | 0.00 | 0.00 | 66 | 1006.6 |
| 20260902184654 | 59 | 211 | 3.0 | 11.0 | 0.00 | 0.00 | 0.00 | 65 | 1006.5 |
| 20260902184148 | 60 | 188 | 3.0 | 11.0 | 0.00 | 0.00 | 0.00 | 63 | 1006.6 |
| 20260902183931 | 60 | 199 | 4.0 | 11.0 | 0.00 | 0.00 | 0.00 | 59 | 1006.5 |
| 20260902183136 | 61 | 148 | 4.0 | 13.0 | 0.00 | 0.00 | 0.00 | 57 | 1006.4 |
| 20260902182630 | 61 | 138 | 4.0 | 12.0 | 0.00 | 0.00 | 0.00 | 54 | 1006.4 |
| 20260902182418 | 61 | 176 | 4.0 | 11.0 | 0.00 | 0.00 | 0.00 | 54 | 1006.2 |
| 20260902182413 | 61 | 188 | 4.0 | 10.0 | 0.00 | 0.00 | 0.00 | 55 | 1006.4 |
| 20260902181356 | 60 | 140 | 4.0 | 12.0 | 0.00 | 0.00 | 0.00 | 55 | 1006.2 |
| 20260902180824 | 60 | 180 | 4.0 | 12.0 | 0.00 | 0.00 | 0.00 | 56 | 1006.2 |
| 20260902180609 | 60 | 180 | 4.0 | 12.0 | 0.00 | 0.00 | 0.00 | 56 | 1006.2 |
| 20260902180100 | 60 | 117 | 4.0 | 9.0 | 0.00 | 0.00 | 0.00 | 56 | 1006.4 |
| 20260902175554 | 60 | 186 | 5.0 | 13.0 | 0.00 | 0.00 | 0.00 | 57 | 1006.2 |
| 20260902175048 | 60 | 188 | 5.0 | 13.0 | 0.00 | 0.00 | 0.00 | 56 | 1006.4 |
| 20260902174543 | 60 | 144 | 5.0 | 13.0 | 0.00 | 0.00 | 0.00 | 56 | 1006.4 |
| 20260902174035 | 60 | 147 | 5.0 | 13.0 | 0.00 | 0.00 | 0.00 | 56 | 1006.4 |
| 20260902173530 | 60 | 134 | 5.0 | 17.0 | 0.00 | 0.00 | 0.00 | 56 | 1006.2 |
| 20260902173024 | 60 | 130 | 5.0 | 17.0 | 0.00 | 0.00 | 0.00 | 57 | 1006.4 |
| 20260902172519 | 61 | 186 | 5.0 | 13.0 | 0.00 | 0.00 | 0.00 | 57 | 1006.4 |
| 20260902172016 | 61 | 200 | 5.0 | 15.0 | 0.00 | 0.00 | 0.00 | 56 | 1006.4 |
| 20260902171510 | 61 | 163 | 6.0 | 15.0 | 0.00 | 0.00 | 0.00 | 56 | 1006.4 |
| 20260902171001 | 61 | 150 | 6.0 | 15.0 | 0.00 | 0.00 | 0.00 | 56 | 1006.4 |
| 20260902170454 | 61 | 212 | 5.0 | 12.0 | 0.00 | 0.00 | 0.00 | 57 | 1006.2 |
| 20260902165948 | 61 | 205 | 6.0 | 13.0 | 0.00 | 0.00 | 0.00 | 57 | 1006.2 |
| 20260902165442 | 61 | 185 | 5.0 | 14.0 | 0.00 | 0.00 | 0.00 | 57 | 1006.2 |
| 20260902164936 | 61 | 113 | 5.0 | 13.0 | 0.00 | 0.00 | 0.00 | 57 | 1006.4 |
| 20260902164718 | 61 | 150 | 6.0 | 13.0 | 0.00 | 0.00 | 0.00 | 58 | 1006.4 |
| 20260902164015 | 61 | 240 | 6.0 | 13.0 | 0.00 | 0.00 | 0.00 | 59 | 1006.4 |
| 20260902163959 | 61 | 182 | 6.0 | 13.0 | 0.00 | 0.00 | 0.00 | 58 | 1006.4 |
| 20260902162945 | 61 | 197 | 6.0 | 15.0 | 0.00 | 0.00 | 0.00 | 59 | 1006.6 |
| 20260902162445 | 61 | 250 | 6.0 | 15.0 | 0.00 | 0.00 | 0.00 | 59 | 1006.6 |
| 20260902161943 | 61 | 198 | 5.0 | 14.0 | 0.00 | 0.00 | 0.00 | 59 | 1006.6 |
| 20260902161714 | 61 | 193 | 5.0 | 14.0 | 0.00 | 0.00 | 0.00 | 58 | 1006.6 |
| 20260902160943 | 61 | 219 | 5.0 | 12.0 | 0.00 | 0.00 | 0.00 | 59 | 1006.5 |
| 20260902160442 | 61 | 189 | 5.0 | 11.0 | 0.00 | 0.00 | 0.00 | 59 | 1006.6 |
| 20260902160216 | 61 | 178 | 4.0 | 11.0 | 0.00 | 0.00 | 0.00 | 60 | 1006.7 |
| 20260902155439 | 61 | 174 | 4.0 | 11.0 | 0.00 | 0.00 | 0.00 | 60 | 1006.7 |
| 20260902154936 | 60 | 190 | 4.0 | 12.0 | 0.00 | 0.00 | 0.00 | 61 | 1006.7 |
| 20260902154437 | 60 | 182 | 4.0 | 12.0 | 0.00 | 0.00 | 0.00 | 61 | 1006.8 |
| 20260902153936 | 60 | 188 | 4.0 | 12.0 | 0.00 | 0.00 | 0.00 | 63 | 1006.8 |
| 20260902153434 | 59 | 186 | 4.0 | 12.0 | 0.00 | 0.00 | 0.00 | 63 | 1006.9 |
| 20260902152935 | 58 | 173 | 3.0 | 10.0 | 0.00 | 0.00 | 0.00 | 67 | 1006.9 |
| 20260902152433 | 57 | 174 | 2.0 | 8.0 | 0.00 | 0.00 | 0.00 | 70 | 1007.0 |
| 20260902151932 | 56 | 148 | 1.0 | 7.0 | 0.00 | 0.00 | 0.00 | 72 | 1007.0 |
| 20260902151432 | 55 | 145 | 0.0 | 1.0 | 0.00 | 0.00 | 0.00 | 73 | 1007.2 |
| 20260902150932 | 55 | 145 | 0.0 | 4.0 | 0.00 | 0.00 | 0.00 | 74 | 1007.3 |
| 20260902150431 | 54 | 145 | 1.0 | 4.0 | 0.00 | 0.00 | 0.00 | 75 | 1007.2 |
| 20260902145932 | 54 | 134 | 0.0 | 3.0 | 0.00 | 0.00 | 0.00 | 75 | 1007.2 |
| 20260902145429 | 53 | 138 | 0.0 | 1.0 | 0.00 | 0.00 | 0.00 | 76 | 1007.3 |
| 20260902144929 | 53 | 138 | 0.0 | 1.0 | 0.00 | 0.00 | 0.00 | 77 | 1007.3 |
| 20260902144431 | 53 | 138 | 0.0 | 1.0 | 0.00 | 0.00 | 0.00 | 78 | 1007.3 |
| 20260902143929 | 53 | 138 | 0.0 | 1.0 | 0.00 | 0.00 | 0.00 | 78 | 1007.3 |
| 20260902143431 | 52 | 138 | 0.0 | 2.0 | 0.00 | 0.00 | 0.00 | 79 | 1007.4 |
| 20260902142931 | 52 | 138 | 0.0 | 2.0 | 0.00 | 0.00 | 0.00 | 79 | 1007.4 |
| 20260902142430 | 52 | 138 | 0.0 | 0.0 | 0.00 | 0.00 | 0.00 | 80 | 1007.4 |
| 20260902141939 | 52 | 138 | 0.0 | 0.0 | 0.00 | 0.00 | 0.00 | 80 | 1007.4 |
| 20260902141721 | 52 | 138 | 0.0 | 0.0 | 0.00 | 0.00 | 0.00 | 79 | 1007.7 |
| 20260902140928 | 52 | 138 | 0.0 | 1.0 | 0.00 | 0.00 | 0.00 | 79 | 1007.7 |
| 20260902140427 | 51 | 138 | 0.0 | 2.0 | 0.00 | 0.00 | 0.00 | 80 | 1007.7 |
| 20260902135926 | 51 | 138 | 0.0 | 3.0 | 0.00 | 0.00 | 0.00 | 80 | 1007.5 |
| 20260902135426 | 51 | 138 | 0.0 | 3.0 | 0.00 | 0.00 | 0.00 | 80 | 1007.5 |
| 20260902135204 | 51 | 138 | 1.0 | 4.0 | 0.00 | 0.00 | 0.00 | 80 | 1007.5 |
| 20260902134421 | 51 | 139 | 1.0 | 4.0 | 0.00 | 0.00 | 0.00 | 80 | 1007.7 |
| 20260902133921 | 51 | 136 | 1.0 | 4.0 | 0.00 | 0.00 | 0.00 | 80 | 1007.5 |
| 20260902133415 | 51 | 140 | 1.0 | 4.0 | 0.00 | 0.00 | 0.00 | 80 | 1007.7 |
| 20260902132910 | 51 | 138 | 2.0 | 4.0 | 0.00 | 0.00 | 0.00 | 80 | 1007.8 |
| 20260902132403 | 51 | 144 | 1.0 | 4.0 | 0.00 | 0.00 | 0.00 | 81 | 1007.5 |
| 20260902131908 | 51 | 146 | 1.0 | 3.0 | 0.00 | 0.00 | 0.00 | 80 | 1007.8 |
| 20260902130844 | 51 | 149 | 0.0 | 3.0 | 0.00 | 0.00 | 0.00 | 80 | 1007.9 |
| 20260902130339 | 51 | 148 | 1.0 | 3.0 | 0.00 | 0.00 | 0.00 | 80 | 1007.9 |
| 20260902125833 | 51 | 148 | 1.0 | 3.0 | 0.00 | 0.00 | 0.00 | 79 | 1008.0 |
| 20260902125327 | 51 | 149 | 1.0 | 4.0 | 0.00 | 0.00 | 0.00 | 79 | 1008.1 |
| 20260902124821 | 51 | 150 | 1.0 | 4.0 | 0.00 | 0.00 | 0.00 | 79 | 1008.1 |
| 20260902124315 | 52 | 157 | 1.0 | 3.0 | 0.00 | 0.00 | 0.00 | 79 | 1008.1 |
| 20260902123809 | 52 | 157 | 1.0 | 3.0 | 0.00 | 0.00 | 0.00 | 79 | 1008.1 |
| 20260902123306 | 52 | 157 | 0.0 | 2.0 | 0.00 | 0.00 | 0.00 | 79 | 1008.1 |
| 20260902122758 | 52 | 157 | 0.0 | 0.0 | 0.00 | 0.00 | 0.00 | 80 | 1008.2 |
| 20260902122252 | 51 | 157 | 0.0 | 0.0 | 0.00 | 0.00 | 0.00 | 80 | 1008.1 |
| 20260902121745 | 51 | 157 | 0.0 | 1.0 | 0.00 | 0.00 | 0.00 | 80 | 1008.1 |
| 20260902121240 | 51 | 157 | 0.0 | 1.0 | 0.00 | 0.00 | 0.00 | 80 | 1008.2 |
| 20260902120740 | 51 | 158 | 0.0 | 1.0 | 0.00 | 0.00 | 0.00 | 80 | 1008.2 |
| 20260902120240 | 51 | 158 | 0.0 | 1.0 | 0.00 | 0.00 | 0.00 | 81 | 1008.2 |
| 20260902115740 | 51 | 158 | 0.0 | 2.0 | 0.00 | 0.00 | 0.00 | 81 | 1008.4 |
| 20260902115246 | 51 | 158 | 0.0 | 2.0 | 0.00 | 0.00 | 0.00 | 81 | 1008.5 |
| 20260902114736 | 50 | 158 | 0.0 | 3.0 | 0.00 | 0.00 | 0.00 | 82 | 1008.5 |
| 20260902114235 | 50 | 153 | 0.0 | 3.0 | 0.00 | 0.00 | 0.00 | 82 | 1008.5 |
| 20260902113735 | 50 | 153 | 0.0 | 2.0 | 0.00 | 0.00 | 0.00 | 82 | 1008.5 |
| 20260902113235 | 50 | 147 | 0.0 | 2.0 | 0.00 | 0.00 | 0.00 | 81 | 1008.5 |
| 20260902112735 | 50 | 146 | 1.0 | 2.0 | 0.00 | 0.00 | 0.00 | 81 | 1008.4 |
| 20260902112237 | 50 | 146 | 1.0 | 2.0 | 0.00 | 0.00 | 0.00 | 81 | 1008.3 |
| 20260902111736 | 50 | 142 | 1.0 | 3.0 | 0.00 | 0.00 | 0.00 | 80 | 1008.3 |
| 20260902111236 | 50 | 142 | 2.0 | 4.0 | 0.00 | 0.00 | 0.00 | 80 | 1008.4 |
| 20260902110734 | 51 | 142 | 2.0 | 5.0 | 0.00 | 0.00 | 0.00 | 79 | 1008.4 |
| 20260902110236 | 51 | 141 | 1.0 | 5.0 | 0.00 | 0.00 | 0.00 | 80 | 1008.4 |
| 20260902105744 | 51 | 144 | 1.0 | 3.0 | 0.00 | 0.00 | 0.00 | 80 | 1008.5 |
| 20260902105520 | 51 | 146 | 1.0 | 5.0 | 0.00 | 0.00 | 0.00 | 79 | 1008.5 |
| 20260902104741 | 51 | 143 | 1.0 | 5.0 | 0.00 | 0.00 | 0.00 | 78 | 1008.5 |
| 20260902104243 | 51 | 161 | 1.0 | 4.0 | 0.00 | 0.00 | 0.00 | 78 | 1008.7 |
| 20260902103733 | 51 | 174 | 1.0 | 4.0 | 0.00 | 0.00 | 0.00 | 77 | 1008.6 |
| 20260902103503 | 52 | 176 | 1.0 | 4.0 | 0.00 | 0.00 | 0.00 | 76 | 1008.6 |
| 20260902102726 | 52 | 152 | 2.0 | 5.0 | 0.00 | 0.00 | 0.00 | 76 | 1008.6 |
| 20260902102225 | 52 | 188 | 2.0 | 5.0 | 0.00 | 0.00 | 0.00 | 77 | 1008.7 |
| 20260902101725 | 52 | 198 | 3.0 | 6.0 | 0.00 | 0.00 | 0.00 | 77 | 1008.6 |
| 20260902101224 | 52 | 214 | 3.0 | 6.0 | 0.00 | 0.00 | 0.00 | 78 | 1008.6 |
| 20260902100725 | 52 | 213 | 3.0 | 5.0 | 0.00 | 0.00 | 0.00 | 78 | 1008.6 |
| 20260902100225 | 51 | 205 | 3.0 | 6.0 | 0.00 | 0.00 | 0.00 | 78 | 1008.6 |
| 20260902095725 | 51 | 196 | 1.0 | 6.0 | 0.00 | 0.00 | 0.00 | 78 | 1008.5 |
| 20260902095227 | 52 | 229 | 1.0 | 4.0 | 0.00 | 0.00 | 0.00 | 78 | 1008.4 |
| 20260902094725 | 52 | 250 | 1.0 | 3.0 | 0.00 | 0.00 | 0.00 | 78 | 1008.5 |
| 20260902094221 | 52 | 254 | 2.0 | 3.0 | 0.00 | 0.00 | 0.00 | 78 | 1008.4 |
| 20260902093720 | 52 | 257 | 1.0 | 3.0 | 0.00 | 0.00 | 0.00 | 78 | 1008.4 |
| 20260902093221 | 52 | 252 | 1.0 | 3.0 | 0.00 | 0.00 | 0.00 | 78 | 1008.4 |
| 20260902092952 | 52 | 254 | 2.0 | 4.0 | 0.00 | 0.00 | 0.00 | 78 | 1008.6 |
| 20260902092221 | 52 | 256 | 2.0 | 4.0 | 0.00 | 0.00 | 0.00 | 78 | 1008.6 |
| 20260902091721 | 52 | 262 | 1.0 | 4.0 | 0.00 | 0.00 | 0.00 | 77 | 1008.6 |
| 20260902091221 | 52 | 260 | 1.0 | 4.0 | 0.00 | 0.00 | 0.00 | 77 | 1008.7 |
| 20260902090721 | 53 | 264 | 0.0 | 3.0 | 0.00 | 0.00 | 0.00 | 77 | 1008.9 |
| 20260902090447 | 53 | 280 | 0.0 | 2.0 | 0.00 | 0.00 | 0.00 | 76 | 1009.0 |
| 20260902085714 | 53 | 280 | 0.0 | 2.0 | 0.00 | 0.00 | 0.00 | 76 | 1009.1 |
| 20260902085209 | 53 | 282 | 0.0 | 2.0 | 0.00 | 0.00 | 0.00 | 76 | 1009.1 |
| 20260902084937 | 53 | 282 | 0.0 | 3.0 | 0.00 | 0.00 | 0.00 | 76 | 1009.0 |
| 20260902084156 | 53 | 284 | 0.0 | 3.0 | 0.00 | 0.00 | 0.00 | 76 | 1009.0 |
| 20260902083650 | 53 | 298 | 0.0 | 2.0 | 0.00 | 0.00 | 0.00 | 75 | 1008.9 |
| 20260902083414 | 53 | 298 | 0.0 | 3.0 | 0.00 | 0.00 | 0.00 | 75 | 1008.7 |
| 20260902082920 | 53 | 279 | 0.0 | 2.0 | 0.00 | 0.00 | 0.00 | 75 | 1008.7 |
| 20260902082915 | 53 | 298 | 0.0 | 3.0 | 0.00 | 0.00 | 0.00 | 76 | 1008.9 |
| 20260902081856 | 53 | 279 | 0.0 | 3.0 | 0.00 | 0.00 | 0.00 | 76 | 1008.6 |
| 20260902081119 | 53 | 280 | 0.0 | 3.0 | 0.00 | 0.00 | 0.00 | 75 | 1008.6 |
| 20260902080614 | 53 | 321 | 0.0 | 2.0 | 0.00 | 0.00 | 0.00 | 75 | 1008.6 |
| 20260902080108 | 54 | 326 | 0.0 | 0.0 | 0.00 | 0.00 | 0.00 | 74 | 1008.6 |
| 20260902075609 | 54 | 326 | 0.0 | 1.0 | 0.00 | 0.00 | 0.00 | 73 | 1008.5 |
| 20260902075057 | 55 | 326 | 0.0 | 2.0 | 0.00 | 0.00 | 0.00 | 73 | 1008.6 |
| 20260902074551 | 55 | 326 | 1.0 | 5.0 | 0.00 | 0.00 | 0.00 | 73 | 1008.5 |
| 20260902074044 | 55 | 326 | 2.0 | 7.0 | 0.00 | 0.00 | 0.00 | 73 | 1008.5 |
| 20260902073816 | 55 | 336 | 3.0 | 9.0 | 0.00 | 0.00 | 0.00 | 73 | 1008.4 |
| 20260902073032 | 55 | 320 | 4.0 | 9.0 | 0.00 | 0.00 | 0.00 | 73 | 1008.4 |
| 20260902072531 | 55 | 307 | 4.0 | 8.0 | 0.00 | 0.00 | 0.00 | 72 | 1008.4 |
| 20260902072031 | 56 | 331 | 4.0 | 8.0 | 0.00 | 0.00 | 0.00 | 72 | 1008.4 |
| 20260902071811 | 56 | 299 | 4.0 | 10.0 | 0.00 | 0.00 | 0.00 | 72 | 1008.4 |
| 20260902071029 | 56 | 296 | 5.0 | 10.0 | 0.00 | 0.00 | 0.00 | 72 | 1008.5 |
| 20260902070529 | 56 | 306 | 4.0 | 10.0 | 0.00 | 0.00 | 0.00 | 72 | 1008.5 |
| 20260902070028 | 56 | 323 | 4.0 | 8.0 | 0.00 | 0.00 | 0.00 | 72 | 1008.5 |
| 20260902065537 | 56 | 265 | 4.0 | 9.0 | 0.00 | 0.00 | 0.00 | 71 | 1008.6 |
| 20260902065300 | 56 | 264 | 4.0 | 9.0 | 0.00 | 0.00 | 0.00 | 71 | 1008.6 |
| 20260902064527 | 56 | 258 | 4.0 | 9.0 | 0.00 | 0.00 | 0.00 | 71 | 1008.6 |
| 20260902064257 | 56 | 300 | 4.0 | 11.0 | 0.00 | 0.00 | 0.00 | 71 | 1008.6 |
| 20260902063527 | 56 | 279 | 4.0 | 11.0 | 0.00 | 0.00 | 0.00 | 70 | 1008.7 |
| 20260902063029 | 57 | 250 | 5.0 | 10.0 | 0.00 | 0.00 | 0.00 | 70 | 1008.7 |
| 20260902062758 | 57 | 261 | 5.0 | 10.0 | 0.00 | 0.00 | 0.00 | 69 | 1008.7 |
| 20260902062027 | 57 | 288 | 4.0 | 10.0 | 0.00 | 0.00 | 0.00 | 69 | 1008.7 |
| 20260902061526 | 57 | 290 | 4.0 | 9.0 | 0.00 | 0.00 | 0.00 | 68 | 1008.7 |
| 20260902061026 | 57 | 294 | 4.0 | 9.0 | 0.00 | 0.00 | 0.00 | 68 | 1008.7 |
| 20260902060810 | 57 | 290 | 5.0 | 10.0 | 0.00 | 0.00 | 0.00 | 67 | 1008.7 |
| 20260902060035 | 58 | 285 | 4.0 | 10.0 | 0.00 | 0.00 | 0.00 | 67 | 1008.7 |
| 20260902055526 | 58 | 279 | 3.0 | 7.0 | 0.00 | 0.00 | 0.00 | 66 | 1008.9 |
| 20260902055023 | 58 | 296 | 4.0 | 8.0 | 0.00 | 0.00 | 0.00 | 66 | 1008.9 |
| 20260902054519 | 58 | 298 | 4.0 | 8.0 | 0.00 | 0.00 | 0.00 | 66 | 1009.0 |
| 20260902054011 | 58 | 274 | 5.0 | 12.0 | 0.00 | 0.00 | 0.00 | 65 | 1009.0 |
| 20260902053503 | 58 | 306 | 5.0 | 12.0 | 0.00 | 0.00 | 0.00 | 65 | 1008.9 |
| 20260902053001 | 58 | 294 | 4.0 | 9.0 | 0.00 | 0.00 | 0.00 | 64 | 1009.0 |
| 20260902052453 | 58 | 294 | 4.0 | 9.0 | 0.00 | 0.00 | 0.00 | 64 | 1008.9 |
| 20260902051948 | 58 | 293 | 4.0 | 9.0 | 0.00 | 0.00 | 0.00 | 63 | 1008.7 |
| 20260902051440 | 59 | 317 | 4.0 | 9.0 | 0.00 | 0.00 | 0.00 | 63 | 1008.7 |
| 20260902050934 | 59 | 327 | 4.0 | 9.0 | 0.00 | 0.00 | 0.00 | 63 | 1008.6 |
| 20260902050431 | 59 | 288 | 4.0 | 9.0 | 0.00 | 0.00 | 0.00 | 63 | 1008.6 |
| 20260902045922 | 59 | 277 | 3.0 | 8.0 | 0.00 | 0.00 | 0.00 | 62 | 1008.6 |
| 20260902045423 | 59 | 287 | 3.0 | 8.0 | 0.00 | 0.00 | 0.00 | 62 | 1008.6 |
| 20260902045153 | 59 | 293 | 2.0 | 7.0 | 0.00 | 0.00 | 0.00 | 62 | 1008.5 |
| 20260902044418 | 59 | 290 | 3.0 | 7.0 | 0.00 | 0.00 | 0.00 | 62 | 1008.5 |
| 20260902043928 | 59 | 314 | 3.0 | 10.0 | 0.00 | 0.00 | 0.00 | 61 | 1008.4 |
| 20260902043418 | 59 | 305 | 4.0 | 10.0 | 0.00 | 0.00 | 0.00 | 61 | 1008.4 |
| 20260902042918 | 59 | 296 | 4.0 | 9.0 | 0.00 | 0.00 | 0.00 | 62 | 1008.3 |
| 20260902042417 | 59 | 316 | 4.0 | 10.0 | 0.00 | 0.00 | 0.00 | 62 | 1008.3 |
| 20260902042150 | 59 | 294 | 4.0 | 10.0 | 0.00 | 0.00 | 0.00 | 62 | 1008.2 |
| 20260902041417 | 59 | 329 | 4.0 | 10.0 | 0.00 | 0.00 | 0.00 | 62 | 1008.2 |
| 20260902040918 | 60 | 331 | 5.0 | 11.0 | 0.00 | 0.00 | 0.00 | 62 | 1008.1 |
| 20260902040418 | 60 | 300 | 4.0 | 11.0 | 0.00 | 0.00 | 0.00 | 61 | 1008.0 |
| 20260902035918 | 60 | 279 | 5.0 | 10.0 | 0.00 | 0.00 | 0.00 | 61 | 1007.9 |
| 20260902035418 | 60 | 300 | 6.0 | 14.0 | 0.00 | 0.00 | 0.00 | 61 | 1007.8 |
| 20260902034916 | 60 | 283 | 5.0 | 14.0 | 0.00 | 0.00 | 0.00 | 61 | 1007.7 |
| 20260902034416 | 60 | 233 | 5.0 | 10.0 | 0.00 | 0.00 | 0.00 | 61 | 1007.7 |
| 20260902033916 | 60 | 284 | 6.0 | 12.0 | 0.00 | 0.00 | 0.00 | 61 | 1007.3 |
| 20260902033416 | 60 | 319 | 5.0 | 13.0 | 0.00 | 0.00 | 0.00 | 61 | 1007.5 |
| 20260902032916 | 61 | 244 | 4.0 | 13.0 | 0.00 | 0.00 | 0.00 | 61 | 1007.3 |
| 20260902032415 | 61 | 297 | 4.0 | 17.0 | 0.00 | 0.00 | 0.00 | 61 | 1007.3 |
| 20260902032204 | 61 | 348 | 7.0 | 17.0 | 0.00 | 0.00 | 0.00 | 60 | 1007.0 |
| 20260902032200 | 61 | 319 | 6.0 | 17.0 | 0.00 | 0.00 | 0.00 | 61 | 1007.2 |
| 20260902031157 | 62 | 277 | 7.0 | 17.0 | 0.00 | 0.00 | 0.00 | 60 | 1007.0 |
| 20260902030652 | 62 | 269 | 5.0 | 17.0 | 0.00 | 0.00 | 0.00 | 59 | 1006.8 |
| 20260902030154 | 62 | 332 | 7.0 | 17.0 | 0.00 | 0.00 | 0.00 | 58 | 1006.7 |
| 20260902025414 | 62 | 298 | 8.0 | 17.0 | 0.00 | 0.00 | 0.00 | 57 | 1006.7 |
| 20260902024916 | 63 | 275 | 7.0 | 16.0 | 0.00 | 0.00 | 0.00 | 57 | 1006.7 |
| 20260902024655 | 63 | 260 | 7.0 | 16.0 | 0.00 | 0.00 | 0.00 | 56 | 1006.6 |
| 20260902023922 | 63 | 286 | 8.0 | 16.0 | 0.00 | 0.00 | 0.00 | 55 | 1006.5 |
| 20260902023424 | 63 | 259 | 8.0 | 19.0 | 0.00 | 0.00 | 0.00 | 55 | 1006.4 |
| 20260902022922 | 64 | 303 | 7.0 | 19.0 | 0.00 | 0.00 | 0.00 | 54 | 1006.5 |
| 20260902022421 | 64 | 275 | 7.0 | 16.0 | 0.00 | 0.00 | 0.00 | 53 | 1006.4 |
| 20260902021917 | 64 | 304 | 8.0 | 17.0 | 0.00 | 0.00 | 0.00 | 52 | 1006.4 |
| 20260902021417 | 65 | 240 | 8.0 | 17.0 | 0.00 | 0.00 | 0.00 | 52 | 1006.4 |
| 20260902020913 | 65 | 295 | 7.0 | 15.0 | 0.00 | 0.00 | 0.00 | 51 | 1006.4 |
| 20260902020409 | 66 | 260 | 7.0 | 15.0 | 0.00 | 0.00 | 0.00 | 51 | 1006.4 |
| 20260902015900 | 66 | 269 | 7.0 | 17.0 | 0.00 | 0.00 | 0.00 | 50 | 1006.4 |
| 20260902015355 | 66 | 261 | 6.0 | 17.0 | 0.00 | 0.00 | 0.00 | 50 | 1006.4 |
| 20260902014848 | 66 | 333 | 7.0 | 15.0 | 0.00 | 0.00 | 0.00 | 51 | 1006.2 |
| 20260902014343 | 66 | 269 | 8.0 | 16.0 | 0.00 | 0.00 | 0.00 | 51 | 1006.4 |
| 20260902013838 | 66 | 269 | 10.0 | 18.0 | 0.00 | 0.00 | 0.00 | 51 | 1006.4 |
| 20260902013331 | 67 | 275 | 9.0 | 21.0 | 0.00 | 0.00 | 0.00 | 50 | 1006.2 |
| 20260902012825 | 67 | 243 | 7.0 | 18.0 | 0.00 | 0.00 | 0.00 | 50 | 1006.1 |
| 20260902012319 | 67 | 298 | 6.0 | 17.0 | 0.00 | 0.00 | 0.00 | 50 | 1006.0 |
| 20260902012044 | 67 | 234 | 7.0 | 14.0 | 0.00 | 0.00 | 0.00 | 51 | 1005.9 |
| 20260902011308 | 67 | 306 | 7.0 | 14.0 | 0.00 | 0.00 | 0.00 | 51 | 1005.9 |
| 20260902010802 | 67 | 280 | 7.0 | 19.0 | 0.00 | 0.00 | 0.00 | 51 | 1005.8 |
| 20260902010531 | 67 | 302 | 7.0 | 19.0 | 0.00 | 0.00 | 0.00 | 50 | 1005.7 |
| 20260902005749 | 68 | 309 | 9.0 | 23.0 | 0.00 | 0.00 | 0.00 | 49 | 1005.7 |
| 20260902005244 | 68 | 278 | 11.0 | 23.0 | 0.00 | 0.00 | 0.00 | 47 | 1005.5 |
| 20260902004741 | 68 | 313 | 12.0 | 22.0 | 0.00 | 0.00 | 0.00 | 47 | 1005.7 |
| 20260902004243 | 68 | 300 | 12.0 | 22.0 | 0.00 | 0.00 | 0.00 | 46 | 1005.7 |
| 20260902003741 | 69 | 295 | 10.0 | 22.0 | 0.00 | 0.00 | 0.00 | 45 | 1005.7 |
| 20260902003242 | 69 | 277 | 10.0 | 20.0 | 0.00 | 0.00 | 0.00 | 44 | 1005.7 |
| 20260902002742 | 69 | 332 | 10.0 | 17.0 | 0.00 | 0.00 | 0.00 | 44 | 1005.7 |
| 20260902002242 | 70 | 322 | 9.0 | 19.0 | 0.00 | 0.00 | 0.00 | 43 | 1005.6 |
| 20260902001747 | 70 | 284 | 11.0 | 21.0 | 0.00 | 0.00 | 0.00 | 42 | 1005.5 |
| 20260902001241 | 71 | 248 | 12.0 | 21.0 | 0.00 | 0.00 | 0.00 | 41 | 1005.5 |
| 20260902000741 | 71 | 215 | 11.0 | 21.0 | 0.00 | 0.00 | 0.00 | 41 | 1005.4 |
| 20260902000242 | 71 | 232 | 11.0 | 19.0 | 0.00 | 0.00 | 0.00 | 40 | 1005.4 |
| 20260901235741 | 71 | 315 | 10.0 | 19.0 | 0.00 | 0.00 | 0.00 | 40 | 1005.4 |
| 20260901235242 | 71 | 275 | 11.0 | 22.0 | 0.00 | 0.00 | 0.00 | 39 | 1005.5 |
| 20260901234741 | 72 | 275 | 10.0 | 22.0 | 0.00 | 0.00 | 0.00 | 39 | 1005.5 |
| 20260901234241 | 73 | 253 | 9.0 | 19.0 | 0.00 | 0.00 | 0.00 | 37 | 1005.5 |
| 20260901233741 | 73 | 302 | 10.0 | 19.0 | 0.00 | 0.00 | 0.00 | 36 | 1005.5 |
| 20260901233240 | 75 | 250 | 9.0 | 17.0 | 0.00 | 0.00 | 0.00 | 35 | 1005.5 |
| 20260901232741 | 75 | 343 | 10.0 | 17.0 | 0.00 | 0.00 | 0.00 | 34 | 1005.5 |
| 20260901232235 | 75 | 301 | 11.0 | 22.0 | 0.00 | 0.00 | 0.00 | 34 | 1005.6 |
| 20260901231729 | 75 | 306 | 11.0 | 22.0 | 0.00 | 0.00 | 0.00 | 34 | 1005.6 |
| 20260901231223 | 76 | 286 | 11.0 | 19.0 | 0.00 | 0.00 | 0.00 | 34 | 1005.6 |
| 20260901230716 | 75 | 275 | 10.0 | 21.0 | 0.00 | 0.00 | 0.00 | 35 | 1005.6 |
| 20260901230214 | 76 | 307 | 10.0 | 21.0 | 0.00 | 0.00 | 0.00 | 34 | 1005.5 |
| 20260901225712 | 76 | 294 | 11.0 | 19.0 | 0.00 | 0.00 | 0.00 | 35 | 1005.5 |
| 20260901225214 | 75 | 254 | 10.0 | 19.0 | 0.00 | 0.00 | 0.00 | 35 | 1005.6 |
| 20260901224713 | 74 | 295 | 9.0 | 16.0 | 0.00 | 0.00 | 0.00 | 35 | 1005.7 |
| 20260901224213 | 74 | 251 | 9.0 | 16.0 | 0.00 | 0.00 | 0.00 | 35 | 1005.6 |
| 20260901223714 | 75 | 319 | 9.0 | 16.0 | 0.00 | 0.00 | 0.00 | 34 | 1005.6 |
| 20260901223458 | 75 | 295 | 9.0 | 16.0 | 0.00 | 0.00 | 0.00 | 33 | 1005.6 |
| 20260901222712 | 76 | 298 | 8.0 | 15.0 | 0.00 | 0.00 | 0.00 | 33 | 1005.5 |
| 20260901222451 | 76 | 261 | 9.0 | 17.0 | 0.00 | 0.00 | 0.00 | 32 | 1005.5 |
| 20260901221951 | 76 | 306 | 10.0 | 17.0 | 0.00 | 0.00 | 0.00 | 31 | 1005.5 |
| 20260901221458 | 77 | 304 | 8.0 | 16.0 | 0.00 | 0.00 | 0.00 | 30 | 1005.4 |
| 20260901220710 | 78 | 270 | 7.0 | 18.0 | 0.00 | 0.00 | 0.00 | 28 | 1005.4 |
| 20260901220447 | 79 | 311 | 7.0 | 18.0 | 0.00 | 0.00 | 0.00 | 27 | 1005.3 |
| 20260901215708 | 80 | 348 | 8.0 | 15.0 | 0.00 | 0.00 | 0.00 | 26 | 1005.3 |
| 20260901215210 | 80 | 306 | 9.0 | 15.0 | 0.00 | 0.00 | 0.00 | 26 | 1005.3 |
| 20260901214709 | 80 | 294 | 8.0 | 15.0 | 0.00 | 0.00 | 0.00 | 26 | 1005.2 |
| 20260901214218 | 80 | 288 | 6.0 | 14.0 | 0.00 | 0.00 | 0.00 | 26 | 1005.2 |
| 20260901213717 | 81 | 296 | 6.0 | 13.0 | 0.00 | 0.00 | 0.00 | 25 | 1005.3 |
| 20260901213220 | 82 | 344 | 6.0 | 13.0 | 0.00 | 0.00 | 0.00 | 24 | 1005.4 |
| 20260901212719 | 82 | 342 | 5.0 | 12.0 | 0.00 | 0.00 | 0.00 | 25 | 1005.4 |
| 20260901212211 | 82 | 321 | 5.0 | 12.0 | 0.00 | 0.00 | 0.00 | 25 | 1005.4 |
| 20260901211705 | 81 | 325 | 4.0 | 11.0 | 0.00 | 0.00 | 0.00 | 25 | 1005.5 |
| 20260901211158 | 80 | 355 | 5.0 | 11.0 | 0.00 | 0.00 | 0.00 | 26 | 1005.5 |